Tracking 20092 objects as of 14-Dec-2019
HD Live streaming from Space Station
objects crossing your sky now

LINGQIAO VIDEO A

Track LINGQIAO VIDEO A now!
10-day predictions


NORAD ID: 40959
Int'l Code: 2015-057B
Perigee: 644.4 km
Apogee: 671.1 km
Inclination: 97.9 °
Period: 97.7 minutes
Semi major axis: 7028 km
RCS: Unknown
Launch date: October 7, 2015
Source: People's Republic of China (PRC)
Launch site: Jiuquan Satellite Launch Center, China (JSC)

LINGQIAO VIDEO A is a Chinese satellite designed for video capture.
aabbcc
Your satellite tracking list
Your tracking list is empty




NASA's NSSDC Master Catalog

Two Line Element Set (TLE):
1 40959U 15057B   19347.70442290  .00000038  00000-0  13461-4 0  9997
2 40959  97.8807  52.3092 0018940  34.6933 325.5508 14.73278429225047
Source of the keplerian elements: AFSPC